{"data":{"norad_id":67661,"intl_designator":"2026-022P","name":"STARLINK-36674","alt_names":[],"object_type":"PAYLOAD","status":"ACTIVE","operator":null,"country":"US","launch_date":"2026-02-02","launch_site_code":"AFWTR","launch_vehicle":null,"mission":null,"orbit_class":"UNKNOWN","rcs_meters":null,"size_class":null,"mass_kg":null,"dimensions":null,"purposes":["comms"],"wikipedia_slug":null,"has_3d_model":false,"image_url":null,"decayed_at":null,"tle_current":{"epoch":"2026-09-18T21:31:47.121024Z","epoch_age_seconds":207475,"freshness":"STALE","line1":"1 67661U 26022P   26261.89707316  .00014419  00000+0  44798-3 0  9999","line2":"2 67661  97.2861 293.5167 0000889 152.0706 208.0585 15.33453079 35185","mean_motion":15.33453079,"eccentricity":8.89e-5,"inclination_deg":97.2861,"raan_deg":293.5167,"arg_perigee_deg":152.0706,"mean_anomaly_deg":208.0585,"bstar":0.00044798,"rev_number":3518,"period_min":93.905709911845,"perigee_km":464.91073613313,"apogee_km":466.12753819432,"semimajor_km":6843.6561371637,"source":"CELESTRAK","updated_at":"2026-09-20T09:00:43.622124Z"}}}